Location: Bonny Doon Airfield
(37.0704°N, 122.1252°W)
Time: 21:34:54
(UTC-08:00)

Vanguard 1 Rocket - Pass Details

Date: 28 October 2017
Orbit: 655 x 4222 km, 34.3° (Epoch: 22 November)

Event Time Altitude Azimuth Distance (km) Brightness Sun altitude
Rises 08:43:16 0° 270° (W) 5,213 10.7 12.9°
Reaches altitude 10° 08:47:27 10° 269° (W) 3,678 10.0 13.6°
Maximum altitude 08:55:44 68° 188° (S) 1,022 8.1 15.0°
Drops below altitude 10° 09:00:40 10° 106° (ESE) 2,242 11.3 15.9°
Sets 09:02:40 0° 103° (ESE) 3,046 11.5 16.2°
